Weather History for Tapachula Airport, Mexico

Change the Weather History Date:

Monday, October 1, 2012

  Actual Average Record
Temperature  
Mean Temperature 79 °F -  
Max Temperature 87 °F 84 °F 91 °F (2014)
Min Temperature 71 °F 73 °F 33 °F (2008)
Cooling Degree Days 14    
Growing Degree Days 29 (Base 50)    
Moisture  
Dew Point 73 °F    
Average Humidity 85    
Maximum Humidity 94    
Minimum Humidity 66    
Precipitation  
Precipitation 0.93 in - - ()
Sea Level Pressure  
Sea Level Pressure 29.83 in    
Wind  
Wind Speed 3 mph ()    
Max Wind Speed 12 mph    
Max Gust Speed -    
Visibility 9.8 miles    
Events      
Averages and records for this station are not official NWS values.
T = Trace of Precipitation, MM = Missing Value Source: Averaged Metar Reports

Daily Weather History Graph

Daily Weather History Graph

Search for Another Location

Airport:

Trip Planner

Search our weather history database for the weather conditions in past years. The results will help you decide how hot, cold, wet, or windy it might be!

Date:

Astronomy

Oct. 01, 2012 Rise Set
Actual Time 6:59 AM CDT 6:58 PM CDT
Civil Twilight 6:37 AM CDT 7:19 PM CDT
Nautical Twilight 6:12 AM CDT 7:44 PM CDT
Astronomical Twilight 5:48 AM CDT 8:09 PM CDT
Moon 8:01 PM CDT 8:06 AM CDT
Length of Visible Light 12h 42m
Length of Day
11h 59m
Full, 98% of the Moon is Illuminated
Oct 1
Full
Oct 8
Last Quarter
Oct 15
New
Oct 21
First Quarter
Oct 29
Full

Hourly Weather History & Observations

Time (CDT) Temp. Heat Index Dew Point Humidity Pressure Visibility Wind Dir Wind Speed Gust Speed Precip Events Conditions
12:40 AM 75.2 °F - 73.4 °F 94% 29.82 in 10.0 mi Calm Calm - N/A   Mostly Cloudy
1:40 AM 75.2 °F - 71.6 °F 89% 29.84 in 10.0 mi Calm Calm - N/A   Mostly Cloudy
2:40 AM 73.4 °F - 71.6 °F 94% 29.82 in 10.0 mi Calm Calm - N/A   Mostly Cloudy
3:40 AM 73.4 °F - 71.6 °F 94% 29.81 in 10.0 mi Calm Calm - N/A   Mostly Cloudy
5:40 AM 75.2 °F - 71.6 °F 89% 29.79 in 10.0 mi Calm Calm - N/A   Mostly Cloudy
6:40 AM 75.2 °F - 71.6 °F 89% 29.81 in 10.0 mi Calm Calm - N/A   Scattered Clouds
7:40 AM 73.4 °F - 69.8 °F 88% 29.82 in 10.0 mi NE 9.2 mph - N/A   Scattered Clouds
8:40 AM 77.0 °F - 71.6 °F 83% 29.84 in 10.0 mi ENE 9.2 mph - N/A   Scattered Clouds
9:44 AM 80.6 °F 86.2 °F 75.2 °F 84% 29.79 in 10.0 mi Calm Calm - N/A   Scattered Clouds
10:40 AM 84.2 °F 92.3 °F 75.2 °F 74% 29.88 in 10.0 mi East 9.2 mph - N/A   Scattered Clouds
11:50 AM 87.8 °F 99.7 °F 77.0 °F 70% 29.88 in 10.0 mi Calm Calm - N/A   Mostly Cloudy
12:40 PM 87.8 °F 97.6 °F 75.2 °F 66% 29.79 in 10.0 mi Calm Calm - N/A   Mostly Cloudy
12:50 PM 87.8 °F 97.6 °F 75.2 °F 66% 29.79 in 10.0 mi Calm Calm - N/A   Mostly Cloudy
1:40 PM 82.4 °F 90.9 °F 77.0 °F 84% 29.84 in 6.0 mi SW 11.5 mph - N/A   Overcast
2:40 PM 82.4 °F 90.9 °F 77.0 °F 84% 29.80 in 10.0 mi SW 11.5 mph - N/A   Scattered Clouds
3:40 PM 84.2 °F 94.1 °F 77.0 °F 79% 29.84 in 10.0 mi SW 11.5 mph - N/A   Scattered Clouds
4:40 PM 84.2 °F 92.3 °F 75.2 °F 74% 29.80 in 10.0 mi WSW 11.5 mph - N/A   Scattered Clouds
5:40 PM 82.4 °F 89.5 °F 75.2 °F 79% 29.80 in 10.0 mi WSW 6.9 mph - N/A   Scattered Clouds
6:45 PM 77.0 °F - 75.2 °F 94% 29.81 in 10.0 mi Calm Calm - N/A   Scattered Clouds
7:40 PM 75.2 °F - 73.4 °F 94% 29.85 in 10.0 mi NE 11.5 mph - N/A   Mostly Cloudy
8:40 PM 71.6 °F - 69.8 °F 94% 29.88 in 10.0 mi NE 11.5 mph - N/A   Mostly Cloudy
9:40 PM 71.6 °F - 69.8 °F 94% 29.77 in 10.0 mi Calm Calm - N/A   Mostly Cloudy
10:40 PM 73.4 °F - 71.6 °F 94% 29.90 in 10.0 mi Calm Calm - N/A   Mostly Cloudy
11:40 PM 73.4 °F - 71.6 °F 94% 29.91 in 10.0 mi Calm Calm - N/A   Mostly Cloudy